665  
ASUS44 KJAN 280010  
RWRMS  
 
MISSISSIPPI HOURLY WEATHER ROUNDUP  
NATIONAL WEATHER SERVICE JACKSON MS  
700 PM CDT TUE SEP 27 2022  
 
NOTE: "FAIR: INDICATES FEW OR NO CLOUDS BELOW 12,000 FEET WITH NO  
SIGNIFICANT WEATHER AND/OR S TO VISIBILITY
.  
 
MSZ001>002-007>008-010>013-018>021-025>028-034>036-280100-  
NORTHWEST MISSISSIPPI  
 
CITY SKY/WX TMP DP RH WIND PRES REMARKS
 
BATESVILLE FAIR 68 48 49 CALM 30.12R  
CLARKSDALE CLEAR 73 43 33 NE3 30.13R  
CLEVELAND FAIR N/A N/A N/A NE5 30.12S  
GREENWOOD CLEAR 67 55 65 CALM 30.11R  
6HR MIN TEMP: 67; 6HR MAX TEMP: 83;  
 
GREENVILLE CLEAR 74 39 28 NE5 30.11R  
6HR MIN TEMP: 74; 6HR MAX TEMP: 86;  
 
OLIVE BRANCH CLEAR 72 41 33 CALM 30.13R  
OXFORD LGT RAIN 70 43 37 CALM 30.15R  
TUNICA CLEAR 71 42 36 NE5 30.13R  

 
 
MSZ003>006-009-014>017-022>024-029>033-037>039-280100-  
NORTHEAST MISSISSIPPI  
 
CITY SKY/WX TMP DP RH WIND PRES REMARKS
 
ABERDEEN FAIR 66 50 55 CALM 30.12S  
COLUMBUS AFB CLEAR 70 46 42 CALM 30.08R  
6HR MIN TEMP: 70; 6HR MAX TEMP: 79;  
 
CORINTH CLEAR 66 46 48 CALM 30.13R  
GOLDN TRIANGLE CLEAR 70 47 43 NE7 30.12R  
STARKVILLE FAIR 66 48 52 CALM 30.10R  
TUPELO CLEAR 69 42 37 N8 30.12R  
6HR MIN TEMP: 69; 6HR MAX TEMP: 81;  
 

 
 
MSZ040-058-280100-  
CENTRAL MISSISSIPPI  
 
CITY SKY/WX TMP DP RH WIND PRES REMARKS
 
JACKSON INTL CLEAR 70 46 42 N7 30.11R  
JACKSON HAWKNS CLEAR 74 45 35 CALM 30.11R  
6HR MIN TEMP: 74; 6HR MAX TEMP: 82;  
 
MERIDIAN KEY CLEAR 65 51 60 NW6 30.10R  
6HR MIN TEMP: 65; 6HR MAX TEMP: 80;  
 
MERIDIAN NAS CLEAR 70 46 42 N3 30.10R  
6HR MIN TEMP: 70; 6HR MAX TEMP: 79;  
 
RAYMOND FAIR 70 48 46 CALM 30.11R  
VICKSBURG VKS CLEAR 73 46 38 CALM 30.09S  

 
 
MSZ059>079-280100-  
SOUTH MISSISSIPPI  
 
CITY SKY/WX TMP DP RH WIND PRES REMARKS
 
BROOKHAVEN FAIR 66 66 100 CALM 30.11S  
HATTIESBURG CLEAR 72 45 37 N5 30.08R  
6HR MIN TEMP: 72; 6HR MAX TEMP: 82;  
 
LAUREL CLEAR 71 45 39 N7 30.09R  
MCCOMB CLEAR 73 45 36 N3 30.09R  
6HR MIN TEMP: 73; 6HR MAX TEMP: 81;  
 
NATCHEZ CLEAR 68 54 60 E6 30.11S  
6HR MIN TEMP: 68; 6HR MAX TEMP: 80;  
 
PINE BELT CLEAR 66 54 65 CALM 30.09R  
6HR MIN TEMP: 66; 6HR MAX TEMP: 81;  
 

 
 
MSZ080>082-280100-  
COASTAL MISSISSIPPI  
 
CITY SKY/WX TMP DP RH WIND PRES REMARKS
 
BILOXI CLEAR 75 46 35 N9 30.01R  
6HR MIN TEMP: 75; 6HR MAX TEMP: 82;  
 
PASCAGOULA CLEAR 73 46 38 N7 30.02R  
6HR MIN TEMP: 73; 6HR MAX TEMP: 85;  
 
GULFPORT CLEAR 76 44 32 N9 30.02R  
6HR MIN TEMP: 76; 6HR MAX TEMP: 85;  
 

 
 
LAZ007>009-015>016-023>026-280100-  
NORTHEAST LOUISIANA  
 
CITY SKY/WX TMP DP RH WIND PRES REMARKS
 
BASTROP FAIR 67 52 57 CALM 30.12S  
TALLULAH/VBURG CLEAR 70 50 49 N3 30.11R  
6HR MIN TEMP: 70; 6HR MAX TEMP: 84;  
 
VIDALIA FAIR 73 49 42 CALM 30.09S  

 
 
 
CLICK HERE TO GO TO PREVIOUS BULLETINS.

The Nexlab MS Page Main Text Page